Vorticity
14 30 29 17 33 21 19 23 23 22 19 19 20 20 14 13 8 2 4 1 3 -1
9 14 29 21 23 24 15 13 19 19 22 21 20 12 20 19 13 15 10 11 8 12
26 7 8 9 15 13 8 11 12 19 25 27 20 14 6 3 9 15 14 13 16 18
31 28 26 26 28 19 23 7 16 10 11 17 26 16 10 8 13 16 13 16 17 11
13 1 12 11 24 31 29 24 13 13 10 10 12 14 30 17 17 10 16 17 7 9
7 6 4 13 17 20 22 29 27 23 27 30 26 28 24 17 11 11 15 16 21 19
-0 -1 24 -1 -2 16 18 18 7 11 10 11 13 11 8 9 11 15 15 18 19 32
25 24 11 24 1 23 5 9 3 6 7 4 5 11 18 12 20 21 25 32 31 37
11 -2 17 31 20 19 19 9 8 14 45 52 44 22 35 34 38 31 41 19 -4 1
10 10 -1 -5 -9 0 4 4 1 -4 -7 -5 -10 -5 2 -7 -0 -1 -3 5 1 0
-0 3 5 4 6 9 9 3 -1 1 3 6 5 1 1 0 -1 2 4 4 3 2
8 8 5 4 4 4 4 4 5 6 6 5 5 4 3 3 3 4 4 4 4 5
4 3 1 1 2 3 4 4 3 3 3 3 3 3 3 4 3 4 4 4 6 7
6 7 7 6 5 5 5 6 6 6 6 6 7 7 7 9 9 9 9 7 6 6
Height
5614 5610 5613 5617 5621 5625 5628 5632 5637 5641 5646 5651 5658 5667 5674 5678 5682 5684 5688 5691 5694 5696
5612 5609 5609 5611 5615 5619 5621 5624 5627 5630 5633 5638 5645 5652 5658 5663 5667 5671 5675 5679 5681 5683
5612 5611 5610 5609 5610 5612 5615 5618 5621 5623 5626 5629 5635 5641 5648 5652 5655 5660 5664 5668 5670 5672
5614 5610 5608 5607 5607 5608 5609 5612 5615 5618 5620 5623 5627 5632 5637 5642 5645 5648 5652 5656 5659 5661
5617 5613 5609 5606 5605 5604 5605 5608 5612 5615 5616 5618 5621 5625 5628 5633 5637 5640 5644 5646 5648 5650
5620 5616 5612 5608 5606 5605 5604 5606 5608 5610 5612 5614 5617 5620 5623 5626 5630 5632 5635 5637 5639 5641
5621 5618 5615 5612 5610 5607 5606 5606 5608 5608 5609 5611 5613 5615 5618 5620 5622 5625 5628 5631 5631 5634
5623 5621 5618 5615 5613 5612 5610 5609 5609 5610 5611 5611 5612 5614 5615 5617 5618 5620 5622 5623 5625 5627
5628 5626 5623 5620 5617 5616 5615 5614 5615 5614 5612 5610 5611 5613 5614 5615 5617 5619 5620 5620 5622 5624
5632 5629 5626 5624 5623 5621 5619 5618 5617 5617 5617 5616 5615 5616 5617 5618 5619 5620 5620 5621 5622 5623
5634 5632 5629 5627 5625 5623 5622 5620 5619 5618 5617 5617 5616 5616 5616 5617 5617 5617 5617 5618 5618 5616
5634 5632 5630 5627 5626 5624 5622 5621 5620 5619 5618 5617 5616 5616 5615 5615 5615 5614 5613 5612 5610 5609
5634 5632 5629 5627 5625 5623 5621 5619 5617 5616 5615 5614 5613 5612 5611 5610 5608 5607 5605 5603 5601 5599
5631 5629 5627 5625 5622 5620 5617 5615 5613 5611 5610 5608 5607 5605 5603 5601 5599 5596 5594 5592 5589 5587